TABS, Texas Automated Buoy System, NOAA HAZMAT, Ocean Observatory, Real Time Oceanographic Data Supporting Oil Spill Prevention and Response

Texas General Land Office  Texas General
 Land Office
 Oil Spill Prevention
 & Response
Texas Automated Buoy System
Real Time Ocean Observations
Supporting Oil Spill Prevention and Response since 1995
Geochemical and Environmental Research Group

TABS Buoy J -- Texas Automated Buoy System

TABS Buoy J Conditions at 08/30/2014 15:00 UTC (08/30/2014 10:00 CDT)
26° 11.4840'N   97° 3.0420'W
AA3900 DCS - sensor depth 2m
Anemometer height: 4m
Water Depth: 68 feet (20 meters)
Speed: 18.02 cm/s (0.35 kts) Direction: 61 °T (ENE) Water Temp: 27°C (81 °F)
System Voltage: 12.3 V Signal Strength: -1.9 dB Ping Count: 125
Wind: 1.6 m/s (3.0 kts)
          From 207°T (SSW)
Air Temp: 25 °C (78 °F)
Relative Humidity:  N/A
Pressure: 1012.9 mb (29.91 inHg)

  


IMPORTANT: Notice to Mariners


Today's System Data (download)

   Date   |  Time  | VBatt |  SigStr| Comp | Nping| Tx | Ty | ADCP | ADCP | VBatt |
          |  (UTC) | (Oper)|   (dB) | (°M) |      |    |    | Volt | Curr |(sleep)|
==========+========+=======+========+======+======+====+====+======+======+=======+
08/30/2014 00:00:00    12.3   -1.93   103.4    130   -2    -3    3.0    2.0   -0.1
08/30/2014 00:30:00    12.3   -1.91   104.4    120   -2    -2    2.0    2.0   -0.1
08/30/2014 01:00:00    12.3   -1.92   108.4    135   -2    -2    2.0    3.0   -0.1
08/30/2014 01:30:00    12.3   -1.94   112.8    144   -2    -3    3.0    3.0   -0.1
08/30/2014 02:00:00    12.3   -1.88   107.0    124   -2    -3    3.0    3.0   -0.1
08/30/2014 02:30:00    12.3   -1.90   116.8    132   -2    -3    3.0    3.0   -0.1
08/30/2014 03:00:00    12.3   -1.86   121.5    143   -2    -3    3.0    3.0   -0.1
08/30/2014 03:30:00    12.3   -1.86   117.4    130   -2    -3    2.0    3.0   -0.1
08/30/2014 04:00:00    12.2   -1.86   112.4    120   -2    -2    2.0    3.0   -0.1
08/30/2014 04:30:00    12.3   -1.88   117.1    133   -1    -2    2.0    2.0   -0.1
08/30/2014 05:00:00    12.2   -1.84   124.3    138   -1    -3    2.0    2.0   -0.1
08/30/2014 05:30:00    12.3   -1.88   131.2    126   -1    -2    2.0    2.0   -0.1
08/30/2014 06:00:00    12.3   -1.91   137.4    144    0    -2    2.0    2.0   -0.1
08/30/2014 06:30:00    12.3   -1.92   133.4    126    0    -2    2.0    1.0   -0.1
08/30/2014 07:00:00    12.3   -1.93   128.4    134   -1    -2    2.0    1.0   -0.1
08/30/2014 07:30:00    12.3   -1.93   129.4    147    0    -2    2.0    1.0   -0.1
08/30/2014 08:00:00    12.2   -1.94   132.6    128    0    -2    2.0    1.0   -0.1
08/30/2014 08:30:00    12.3   -1.90   136.5    135    0    -2    2.0    1.0   -0.1
08/30/2014 09:00:00    12.3   -1.91   154.7    144    0    -1    2.0    1.0   -0.1
08/30/2014 09:30:00    12.2   -1.92   161.7    136    0    -2    1.0    1.0   -0.1
08/30/2014 10:00:00    12.2   -1.87   173.5    138    1    -1    1.0    1.0   -0.1
08/30/2014 10:30:00    12.2   -1.89   252.0    134    1     1    3.0    1.0   -0.1
08/30/2014 11:00:00    12.2   -1.90   257.5    135    1     2    3.0    1.0   -0.1
08/30/2014 11:30:00    12.2   -1.83   254.9    128    2     2    4.0    1.0   -0.1
08/30/2014 12:00:00    12.2   -1.91   248.9    132    2     3    4.0    1.0   -0.1
08/30/2014 12:30:00    12.2   -1.88   239.9    135    3     3    4.0    1.0   -0.1
08/30/2014 13:00:00    12.2   -1.86   229.7    143    2     1    3.0    1.0   -0.1
08/30/2014 13:30:00    12.2   -1.89   305.2    141    1     2    2.0    2.0   -0.1
08/30/2014 14:00:00    12.2   -1.80   270.1    133    1     2    2.0    1.0   -0.1
08/30/2014 14:30:00    12.3   -1.83   211.4    138    1     0    2.0    1.0   -0.1
08/30/2014 15:00:00    12.3   -1.85   204.6    125    1     0    1.0    0.0   -0.1